Time,TemperatureF,DewpointF,PressureIn,WindDirection,WindDirectionDegrees,WindSpeedMPH,WindSpeedGustMPH,Humidity,HourlyPrecipIn,Conditions,Clouds,dailyrainin,SoftwareType,DateUTC
2013-10-25 00:30:00,48.2,45.7,30.10,North,7,1.0,1.0,91,0.00,,,0.00,Wunderground v.1.15,2013-10-25 07:30:00,
2013-10-25 00:59:00,48.4,45.6,30.11,WNW,286,1.0,1.0,90,0.00,,,0.00,Wunderground v.1.15,2013-10-25 07:59:00,
2013-10-25 01:29:00,48.1,45.6,30.11,NNW,344,1.0,1.0,91,0.00,,,0.00,Wunderground v.1.15,2013-10-25 08:29:00,
2013-10-25 01:59:00,47.4,45.2,30.11,NNW,334,0.0,0.0,92,0.00,,,0.00,Wunderground v.1.15,2013-10-25 08:59:00,
2013-10-25 02:29:00,47.1,45.2,30.12,NNW,346,0.0,0.0,93,0.00,,,0.00,Wunderground v.1.15,2013-10-25 09:29:00,
2013-10-25 03:00:00,47.3,45.4,30.12,NNW,348,0.0,0.0,93,0.00,,,0.00,Wunderground v.1.15,2013-10-25 10:00:00,
2013-10-25 03:30:00,47.9,45.4,30.12,North,4,1.0,3.0,91,0.00,,,0.00,Wunderground v.1.15,2013-10-25 10:30:00,
2013-10-25 04:00:00,46.9,44.7,30.12,North,4,0.0,0.0,92,0.00,,,0.00,Wunderground v.1.15,2013-10-25 11:00:00,
2013-10-25 04:30:00,46.4,44.5,30.11,WNW,300,1.0,1.0,93,0.00,,,0.00,Wunderground v.1.15,2013-10-25 11:30:00,
2013-10-25 04:59:00,45.4,43.8,30.12,NW,307,2.0,2.0,94,0.00,,,0.00,Wunderground v.1.15,2013-10-25 11:59:00,
2013-10-25 05:29:00,45.1,43.5,30.13,WNW,301,2.0,2.0,94,0.00,,,0.00,Wunderground v.1.15,2013-10-25 12:29:00,
2013-10-25 05:59:00,44.4,42.8,30.13,WNW,298,0.0,0.0,94,0.00,,,0.00,Wunderground v.1.15,2013-10-25 12:59:00,
2013-10-25 06:29:00,43.4,42.1,30.13,WNW,298,0.0,1.0,95,0.00,,,0.00,Wunderground v.1.15,2013-10-25 13:29:00,
2013-10-25 07:00:00,42.6,41.5,30.13,WNW,298,0.0,0.0,96,0.00,,,0.00,Wunderground v.1.15,2013-10-25 14:00:00,
2013-10-25 07:29:00,42.4,41.6,30.14,NW,309,2.0,2.0,97,0.00,,,0.00,Wunderground v.1.15,2013-10-25 14:29:00,
2013-10-25 07:59:00,42.9,42.1,30.14,WNW,298,0.0,0.0,97,0.00,,,0.00,Wunderground v.1.15,2013-10-25 14:59:00,
2013-10-25 08:30:00,44.2,43.4,30.15,WNW,298,0.0,0.0,97,0.00,,,0.00,Wunderground v.1.15,2013-10-25 15:30:00,
2013-10-25 08:59:00,45.2,43.9,30.16,NE,45,1.0,1.0,95,0.00,,,0.00,Wunderground v.1.15,2013-10-25 15:59:00,
2013-10-25 09:29:00,49.1,46.6,30.17,NE,45,0.0,0.0,91,0.00,,,0.00,Wunderground v.1.15,2013-10-25 16:29:00,
2013-10-25 09:59:00,51.7,47.0,30.17,SSE,165,1.0,1.0,84,0.00,,,0.00,Wunderground v.1.15,2013-10-25 16:59:00,
2013-10-25 10:29:00,53.9,48.2,30.16,SSE,157,1.0,2.0,81,0.00,,,0.00,Wunderground v.1.15,2013-10-25 17:29:00,
2013-10-25 11:00:00,55.9,48.8,30.16,SE,128,2.0,3.0,77,0.00,,,0.00,Wunderground v.1.15,2013-10-25 18:00:00,
2013-10-25 11:29:00,58.0,49.4,30.16,East,96,2.0,3.0,73,0.00,,,0.00,Wunderground v.1.15,2013-10-25 18:29:00,
2013-10-25 11:59:00,59.8,50.4,30.16,SE,128,1.0,1.0,71,0.00,,,0.00,Wunderground v.1.15,2013-10-25 18:59:00,
2013-10-25 12:30:00,62.7,49.9,30.15,WNW,296,2.0,2.0,63,0.00,,,0.00,Wunderground v.1.15,2013-10-25 19:30:00,
2013-10-25 12:59:00,64.4,50.7,30.14,SE,133,2.0,2.0,61,0.00,,,0.00,Wunderground v.1.15,2013-10-25 19:59:00,
2013-10-25 13:29:00,65.2,50.0,30.12,ESE,111,3.0,3.0,58,0.00,,,0.00,Wunderground v.1.15,2013-10-25 20:29:00,
2013-10-25 13:59:00,66.9,50.2,30.11,SE,127,1.0,1.0,55,0.00,,,0.00,Wunderground v.1.15,2013-10-25 20:59:00,
2013-10-25 14:30:00,69.6,50.1,30.10,WNW,298,2.0,7.0,50,0.00,,,0.00,Wunderground v.1.15,2013-10-25 21:30:00,
2013-10-25 15:00:00,64.6,49.0,30.10,WNW,286,7.0,9.0,57,0.00,,,0.00,Wunderground v.1.15,2013-10-25 22:00:00,
2013-10-25 15:29:00,61.8,48.6,30.09,NW,317,8.0,8.0,62,0.00,,,0.00,Wunderground v.1.15,2013-10-25 22:29:00,
2013-10-25 15:59:00,60.5,48.3,30.09,West,281,7.0,7.0,64,0.00,,,0.00,Wunderground v.1.15,2013-10-25 22:59:00,
2013-10-25 16:29:00,59.7,47.9,30.09,WNW,296,8.0,10.0,65,0.00,,,0.00,Wunderground v.1.15,2013-10-25 23:29:00,
2013-10-25 16:59:00,59.7,48.3,30.09,NW,313,7.0,8.0,66,0.00,,,0.00,Wunderground v.1.15,2013-10-25 23:59:00,
2013-10-25 17:30:00,60.4,48.2,30.08,WNW,292,7.0,10.0,64,0.00,,,0.00,Wunderground v.1.15,2013-10-26 00:30:00,
2013-10-25 17:59:00,59.7,47.9,30.08,WNW,300,5.0,6.0,65,0.00,,,0.00,Wunderground v.1.15,2013-10-26 00:59:00,
2013-10-25 18:29:00,57.2,46.3,30.08,WNW,286,3.0,3.0,67,0.00,,,0.00,Wunderground v.1.15,2013-10-26 01:29:00,
2013-10-25 18:59:00,54.9,46.0,30.08,NNW,329,2.0,2.0,72,0.00,,,0.00,Wunderground v.1.15,2013-10-26 01:59:00,
2013-10-25 19:29:00,53.1,45.7,30.08,WNW,296,7.0,7.0,76,0.00,,,0.00,Wunderground v.1.15,2013-10-26 02:29:00,
2013-10-25 19:59:00,52.3,45.3,30.08,NW,309,5.0,5.0,77,0.00,,,0.00,Wunderground v.1.15,2013-10-26 02:59:00,
2013-10-25 20:30:00,52.0,45.4,30.08,NW,307,5.0,8.0,78,0.00,,,0.00,Wunderground v.1.15,2013-10-26 03:30:00,
2013-10-25 21:00:00,51.1,44.8,30.08,NW,309,4.0,7.0,79,0.00,,,0.00,Wunderground v.1.15,2013-10-26 04:00:00,
2013-10-25 21:30:00,50.2,44.3,30.09,NW,312,2.0,3.0,80,0.00,,,0.00,Wunderground v.1.15,2013-10-26 04:30:00,
2013-10-25 22:00:00,50.0,44.1,30.10,WNW,290,3.0,3.0,80,0.00,,,0.00,Wunderground v.1.15,2013-10-26 05:00:00,
2013-10-25 22:29:00,49.7,43.8,30.10,WNW,298,2.0,2.0,80,0.00,,,0.00,Wunderground v.1.15,2013-10-26 05:29:00,
2013-10-25 22:59:00,49.1,43.2,30.11,WNW,299,0.0,0.0,80,0.00,,,0.00,Wunderground v.1.15,2013-10-26 05:59:00,
2013-10-25 23:29:00,48.3,43.1,30.11,NW,306,1.0,3.0,82,0.00,,,0.00,Wunderground v.1.15,2013-10-26 06:29:00,
2013-10-25 23:59:00,47.0,42.4,30.10,WNW,294,2.0,2.0,84,0.00,,,0.00,Wunderground v.1.15,2013-10-26 06:59:00,